Location: Stockholm
(59.3330°N, 18.0500°E)
Time: 12:51:07
(UTC+01:00)

Envisat - Pass Details

Date: 03 December 2022
Orbit: 763 x 765 km, 98.2° (Epoch: 29 January)

Event Time Altitude Azimuth Distance (km) Brightness Sun altitude
Rises 16:41:30 0° 220° (SW) 3,228 7.5 -12.1°
Reaches altitude 10° 16:44:48 10° 243° (WSW) 2,308 7.0 -12.5°
Maximum altitude 16:47:44 15° 278° (W) 1,971 6.0 -12.8°
Drops below altitude 10° 16:50:40 10° 314° (NW) 2,317 5.8 -13.2°
Sets 16:54:01 0° 337° (NNW) 3,249 6.3 -13.6°
